Terug naar catalogus

ARIANE 2 DEB

LostGTO
NORAD 33576·DEBRIS·🇫🇷 France

Gelanceerd Jan 27, 1989 vanaf Guiana Space Centre

Loading…

TLE

VerouderdSource: Space-Track

Epoch: Feb 11, 2013, 06:12 UTC

1 33576U 89006BU  13042.25851561 -.00000027  00000-0  62955-2 0  9999
2 33576 008.7672 353.0068 7112557 324.4679 004.5586 02.22589182 57115

Volg ARIANE 2 DEB in realtime met AllMySat

Download on the App Store